Dewpoint
63 68 70 69 69 70 70 69 68 68 69 69 68 68 68 68 68 67 67 67 67 66 66 66 66 66 64 63 63 63 62 63 62 61 60 60 59 60 60 60 60 60 61
65 69 70 69 69 70 70 70 69 69 69 69 68 68 68 67 66 65 66 66 67 66 65 64 63 63 62 62 62 63 62 61 61 61 60 61 61 59 58 60 60 59 59
68 70 70 70 70 70 70 70 70 70 69 69 68 68 68 66 65 65 64 64 65 65 64 64 63 62 61 61 62 61 61 60 60 59 59 58 59 58 57 59 60 58 59
69 69 69 70 70 71 70 70 70 69 69 69 68 68 68 66 65 65 65 64 61 62 63 62 61 61 60 62 61 60 60 60 60 59 57 56 57 59 58 58 58 59 58
68 69 69 70 70 70 70 70 69 69 69 69 68 68 67 66 64 65 65 66 65 64 63 62 62 62 61 61 61 60 60 60 59 57 57 58 59 58 58 57 57 58 56
69 69 69 70 70 70 70 70 69 69 68 68 68 68 66 66 64 64 65 66 65 64 64 62 62 62 62 61 60 59 60 60 58 57 58 59 57 60 56 59 59 58 58
68 69 69 70 70 70 70 69 69 69 68 68 67 66 66 65 65 63 64 66 65 64 65 63 62 61 62 61 59 60 60 59 57 57 57 57 58 58 58 57 57 55 57
68 68 69 70 70 69 69 69 69 69 68 68 67 66 65 64 63 62 64 64 64 64 63 63 62 62 61 60 60 60 60 58 58 57 57 57 60 59 58 57 55 56 54
68 68 68 69 69 69 69 69 68 68 68 67 66 66 65 65 64 62 63 64 63 64 64 63 62 61 61 60 60 60 59 59 57 58 57 56 58 58 57 56 56 55 55
67 67 67 68 69 68 68 68 67 67 67 67 66 65 64 63 63 62 63 64 64 64 64 64 62 61 61 60 61 60 58 57 56 57 57 57 56 57 56 55 56 55 55
65 66 67 67 67 67 67 66 66 67 67 65 64 64 63 63 62 60 63 63 63 63 64 63 62 62 62 61 60 57 56 55 56 55 57 58 56 56 55 55 55 55 55
63 63 65 66 66 66 66 66 66 66 64 64 63 63 62 62 61 61 63 62 61 63 63 63 62 61 58 57 57 56 56 56 55 54 55 56 55 55 55 55 55 55 55
61 63 64 64 64 65 65 65 65 64 63 63 62 62 62 61 61 62 62 61 61 59 57 59 57 57 56 55 55 55 56 55 54 53 54 54 55 55 56 55 55 55 55
61 62 63 64 64 64 64 63 63 63 63 62 62 61 61 60 60 60 60 60 59 55 54 54 55 56 55 55 54 55 55 54 54 54 54 54 54 55 56 56 55 55 55
60 61 62 63 63 63 63 62 62 62 62 62 61 61 60 59 59 59 59 58 57 55 53 53 54 55 54 54 54 54 54 54 54 54 55 54 55 56 55 55 55 55 54
60 61 62 62 63 63 62 62 62 62 61 61 60 60 59 59 58 58 57 56 55 54 53 53 54 54 54 54 54 54 54 54 54 53 55 56 56 56 55 55 55 54 54
60 61 62 62 63 62 62 62 61 61 62 61 60 59 59 58 57 56 55 54 54 53 52 52 53 53 53 53 53 54 54 53 53 53 54 54 54 54 54 54 54 53 53
60 60 62 62 62 62 61 61 60 61 61 60 59 59 58 56 55 55 54 54 54 52 52 52 52 52 52 52 52 53 53 53 53 53 53 53 52 52 52 52 52 52 52
60 61 61 62 62 61 61 60 59 60 60 60 59 58 57 55 55 54 54 54 53 52 51 51 51 51 51 51 51 51 52 52 52 52 52 52 51 51 50 50 51 51 51
60 61 61 61 62 61 60 59 58 58 58 58 58 58 57 55 54 54 54 54 53 51 51 51 50 50 50 50 50 49 48 48 48 50 51 51 51 50 50 49 47 47 48
60 60 60 61 61 61 60 58 57 57 56 56 56 57 56 55 54 54 54 53 52 51 51 50 49 49 49 48 47 46 45 45 45 44 45 47 49 49 49 49 48 46 45
60 60 60 60 61 60 60 59 57 56 56 56 55 55 55 54 53 53 53 52 52 51 50 49 48 48 48 47 45 43 40 39 43 44 43 42 42 43 44 45 46 46 44
60 60 60 60 60 60 59 58 56 55 55 54 54 54 54 53 52 51 50 50 51 51 50 49 48 47 47 46 45 42 38 35 41 43 44 44 43 42 41 41 40 40 40
60 60 60 60 60 60 58 57 56 55 54 54 54 54 54 54 53 51 50 49 49 50 50 49 48 47 47 46 45 45 44 43 41 38 42 43 44 44 45 44 43 42 40
59 59 61 60 60 59 58 57 56 56 55 54 54 54 53 54 53 53 51 49 48 48 49 49 48 47 46 46 45 44 44 44 44 43 41 41 43 43 44 44 44 44 43
59 59 59 60 60 59 58 57 56 56 54 53 53 53 53 53 53 53 52 50 49 48 47 47 47 47 46 46 46 45 44 42 42 43 42 42 42 43 44 45 45 44 44
Wind_Speed
11 16 16 18 18 19 19 19 19 17 17 19 20 20 20 21 21 23 22 21 23 23 25 26 27 28 28 27 28 26 26 26 26 26 24 25 24 26 25 25 21 21 25
17 15 19 20 19 19 19 20 20 16 15 18 20 21 21 22 22 22 20 21 24 23 24 25 26 26 27 27 27 26 27 26 25 23 22 24 23 24 24 23 22 23 23
19 14 18 21 19 18 17 19 19 17 15 16 19 20 21 22 21 20 19 20 22 23 24 25 25 25 26 26 25 25 25 26 22 19 18 17 19 22 23 22 22 23 23
19 17 15 19 19 19 18 18 18 19 17 17 18 20 21 22 21 20 21 21 20 22 24 23 24 25 24 22 22 24 24 20 18 16 12 16 17 21 22 22 22 23 21
15 17 15 19 20 20 18 20 18 18 17 18 19 21 21 21 21 20 21 22 23 22 23 23 23 22 21 20 23 23 24 21 17 15 14 16 15 20 21 20 20 20 20
16 16 19 19 20 19 18 18 19 20 19 20 21 20 20 20 21 20 22 24 23 20 22 22 21 22 21 21 22 21 22 19 16 14 14 13 15 19 19 20 19 20 20
17 16 17 20 21 19 20 19 20 21 22 21 20 20 20 21 21 20 21 22 21 19 17 23 20 21 21 20 21 21 19 17 15 15 13 14 16 19 19 19 18 18 19
18 18 15 19 20 20 20 21 22 22 22 22 20 20 20 21 20 21 19 20 19 18 22 21 20 20 20 20 20 20 18 17 15 13 14 13 18 17 17 17 16 16 16
16 17 14 15 18 20 19 21 22 22 22 22 21 20 19 19 20 20 19 21 18 20 21 19 20 20 20 20 19 18 17 17 15 12 12 12 16 16 17 16 15 16 15
15 15 15 13 14 15 17 20 22 22 22 21 20 21 19 17 17 18 19 20 17 16 20 20 20 19 19 19 18 17 17 15 12 11 10 12 15 15 15 15 14 14 14
16 15 14 15 15 15 15 17 19 19 20 20 20 20 15 13 12 14 18 20 16 17 20 19 19 18 17 17 17 16 14 10 11 10 10 14 14 14 13 13 13 12 12
19 17 15 16 16 16 14 15 15 16 13 13 14 16 15 14 12 11 16 19 19 21 19 18 18 17 16 14 13 14 11 10 9 9 9 11 12 12 12 12 11 11 10
21 17 15 16 15 17 16 14 12 12 13 12 14 14 14 14 13 12 12 12 14 16 12 12 12 13 15 14 11 12 11 10 8 8 8 9 10 10 10 9 9 9 9
22 19 15 16 17 16 15 14 14 13 12 12 12 14 15 14 14 12 12 12 13 11 11 10 11 11 12 11 12 11 9 9 7 5 6 7 7 8 8 8 7 7 7
22 19 17 16 17 16 16 15 14 14 13 12 13 13 14 14 15 13 12 11 12 10 11 11 13 12 12 11 9 10 9 8 7 5 3 6 5 6 6 6 6 5 5
22 21 18 17 16 16 14 15 14 13 12 13 12 13 14 14 15 15 14 12 11 8 9 11 13 13 11 10 9 8 7 6 5 5 4 4 4 3 4 4 3 3 3
22 21 21 18 17 17 15 13 13 12 12 12 13 14 14 14 16 17 15 13 11 9 10 11 10 9 11 7 7 6 5 5 6 4 3 2 2 3 2 1 1 1 2
20 22 20 17 17 16 16 13 13 13 13 12 13 13 14 14 15 16 15 13 9 11 10 11 10 9 8 9 7 5 4 3 4 4 3 3 2 2 1 1 2 4 5
21 20 19 18 20 18 15 13 13 13 14 13 13 14 14 15 16 15 14 11 11 11 11 11 7 8 9 7 6 4 3 5 5 5 7 7 6 5 5 6 5 6 7
21 19 18 16 16 17 16 14 13 12 11 13 14 14 15 14 15 14 11 10 11 11 11 9 9 4 5 6 4 3 4 6 7 8 9 8 9 8 8 8 7 8 9
19 21 20 18 17 17 18 18 13 16 12 12 13 14 15 15 15 14 13 12 12 15 15 14 7 6 4 5 3 4 7 10 11 11 10 10 11 10 9 10 10 10 11
24 21 22 20 19 17 16 15 9 13 8 10 14 14 15 15 15 15 15 15 14 13 12 13 9 6 3 8 4 1 4 3 5 12 12 11 13 9 11 12 13 13 14
25 24 23 22 21 18 15 11 8 10 7 7 11 12 13 16 16 15 16 16 16 14 16 14 12 10 10 8 3 3 1 3 6 2 2 9 13 12 13 14 15 16 16
26 23 22 22 22 18 19 17 19 18 14 10 12 10 14 15 16 16 17 16 16 15 14 15 13 9 8 10 5 7 3 2 1 7 3 3 5 10 14 15 17 18 18
22 24 22 21 21 19 21 19 18 17 11 10 11 15 15 15 16 17 16 16 15 14 14 15 12 12 9 8 8 4 8 6 4 7 10 7 6 8 12 14 15 17 17
19 24 25 23 22 21 21 18 17 14 15 15 16 17 16 13 14 15 15 16 15 15 15 15 14 15 15 12 10 9 9 6 6 9 11 11 11 11 8 12 15 17 18
Wind_Direction
189 169 170 160 151 144 139 131 130 134 133 128 126 118 117 111 108 106 104 99 98 100 99 99 95 92 95 96 93 91 90 87 83 84 89 85 85 87 84 79 75 79 81
154 165 161 158 156 150 143 137 137 133 129 129 128 125 121 114 107 106 105 105 106 101 101 99 99 98 98 99 97 96 93 89 86 85 88 84 85 89 89 87 85 83 83
149 156 161 159 156 150 142 144 139 132 130 129 129 125 122 116 115 112 113 111 108 104 104 101 100 101 99 95 92 91 91 92 82 84 87 90 90 86 85 85 86 87 82
147 148 159 159 154 145 146 146 138 131 131 133 133 127 122 119 117 118 113 107 108 109 106 105 105 102 100 100 96 99 93 87 83 74 73 90 92 91 89 88 84 82 82
144 144 154 156 151 143 142 140 138 134 132 129 130 125 120 121 121 116 114 108 105 106 110 111 108 105 102 98 95 97 93 88 78 77 70 75 82 84 85 84 83 84 84
139 144 150 150 145 142 141 141 139 135 135 131 127 128 125 122 125 120 110 104 103 111 115 116 112 108 101 99 99 98 94 84 78 77 85 83 89 90 87 81 82 82 80
139 142 149 147 140 140 141 144 139 134 132 131 130 125 126 127 126 127 112 110 109 114 119 118 115 112 106 106 105 100 90 88 84 82 79 80 91 90 91 87 86 83 87
139 137 152 148 143 141 141 140 138 134 134 132 125 124 129 130 129 126 121 114 115 124 117 117 117 112 109 109 106 97 94 88 83 82 83 88 90 91 89 87 89 88 87
134 134 143 148 143 139 139 141 139 136 133 130 127 128 129 129 130 130 129 119 116 122 123 124 121 116 113 112 105 98 95 93 89 85 83 91 95 98 93 92 91 88 88
136 134 140 136 133 137 138 139 141 137 130 126 125 126 126 127 129 131 126 117 117 120 126 122 121 122 120 116 106 98 92 89 90 93 96 95 96 95 94 92 93 93 93
144 140 131 127 125 126 127 135 130 126 121 124 124 123 119 121 123 131 126 119 120 121 125 122 122 116 108 103 103 98 91 92 92 103 90 94 98 97 96 96 93 95 95
149 148 136 131 130 125 122 121 121 119 118 119 124 123 120 119 120 119 126 127 118 113 114 121 121 115 110 106 103 101 98 96 95 101 102 108 106 104 102 101 103 100 96
154 150 139 134 128 129 135 131 132 126 123 122 126 126 123 118 116 117 115 108 104 103 102 110 116 117 121 120 113 110 111 103 101 115 115 116 110 107 108 106 105 105 106
158 154 143 138 133 134 139 143 144 139 138 136 136 134 133 130 128 128 127 121 116 112 110 126 130 128 121 121 124 121 116 114 108 116 128 126 118 122 118 116 112 112 111
159 157 152 146 143 145 146 149 152 152 149 146 143 142 139 139 139 138 136 131 124 111 118 125 138 134 131 133 131 130 131 130 126 109 98 144 139 130 130 128 123 122 115
163 162 154 151 147 147 153 154 151 150 147 147 149 153 148 147 144 143 143 143 134 126 126 128 145 143 146 144 139 138 142 141 141 133 115 94 131 109 146 143 137 141 127
167 160 161 154 151 153 152 149 150 150 150 154 155 157 155 154 151 148 148 150 145 133 126 118 128 137 141 139 146 147 158 166 165 157 156 138 91 73 74 187 219 244 241
165 167 161 159 157 154 155 154 153 153 156 160 160 160 163 162 156 151 152 152 147 138 136 131 136 141 154 161 161 168 176 193 195 193 211 220 216 237 296 337 299 284 286
164 163 162 160 163 161 154 151 150 160 164 168 166 167 172 166 164 159 160 156 150 147 147 146 137 141 169 168 175 188 207 227 233 231 234 237 243 245 249 263 274 279 285
161 162 167 166 164 162 157 149 152 162 171 169 176 177 175 172 171 169 169 167 162 158 155 153 153 124 158 166 160 208 258 254 254 247 246 249 245 249 252 255 268 273 275
163 166 169 170 172 164 168 166 167 179 175 181 181 180 180 180 182 182 189 178 177 174 181 167 148 158 161 154 135 272 266 254 250 248 246 248 254 255 257 259 259 264 270
171 174 173 179 174 175 177 179 176 169 173 181 186 186 186 189 189 181 184 185 183 181 176 175 160 152 165 173 164 123 308 318 269 250 246 249 256 265 267 264 263 263 263
179 180 178 180 179 178 174 156 130 122 125 168 194 189 193 186 185 184 184 181 185 186 187 189 183 182 184 189 167 167 265 276 325 305 283 254 258 260 262 263 264 261 259
186 182 182 181 180 178 169 176 174 180 182 192 184 192 192 193 193 193 194 191 194 192 198 200 194 189 166 198 215 223 192 178 304 319 321 310 269 261 260 262 259 261 258
184 187 186 182 181 178 179 185 186 181 183 166 180 192 196 198 199 198 196 194 198 198 204 201 195 198 194 190 192 176 219 227 224 228 286 298 309 273 267 265 266 264 257
190 192 188 184 181 174 180 174 178 190 176 178 192 195 199 203 204 207 205 202 203 204 204 208 205 206 208 208 205 204 206 207 223 221 244 273 279 294 273 265 257 258 257